User: anonymous   Login
Location: Erraguntapalli
(18.7700°N, 79.7783°E)
Time: 22:20:31
(UTC+00:00)
Language:

ISS - Orbit

View from above orbital plane
View from above orbital plane
View from above satellite
View from above satellite

Ground track
Ground track

The orbit data is extracted from the following two-line orbital elements,

1 25544U 98067A   20028.39345345  .00016717  00000-0  10270-3 0  9083
2 25544  51.6409 325.1030 0005312 201.0402 159.0530 15.49070131 10185
Epoch (UTC): 28 January 2020 09:26:34
Eccentricity: 0.0005312
inclination: 51.6409°
perigee height: 416 km
apogee height: 423 km
right ascension of ascending node: 325.1030°
argument of perigee: 201.0402°
revolutions per day: 15.49070131
mean anomaly at epoch: 159.0530°
orbit number at epoch: 1018

The dashed part of the orbit path shows where the satellite is in the earth's shadow,  

DLR